カタログに戻る

STARLINK-37547

運用中通信SSO
NORAD 68846·PAYLOAD·🇺🇸 United States

打ち上げ Apr 26, 2026 から Vandenberg Space Force Base

Loading…

次のパス (今後24時間)

TLE

最新Source: CelesTrak SupGP

元期: Sep 14, 2026, 21:26 UTC

1 68846C 26094H   26257.89354167  .00049254  00000+0  15293-2 0  2570
2 68846  97.2836 271.0616 0001498  90.7290 358.6440 15.33406962    11

AllMySatでSTARLINK-37547をリアルタイム追跡

Download on the App Store